AMAZONAS 5

Last updated on Sat Sep 05 2026 00:03:05 GMT+0000 (Coordinated Universal Time)

1 42934U 17053A 26247.29871154 -.00000288 00000+0 00000+0 0 9993 2 42934 0.0468 313.7265 0001887 252.1364 184.1019 1.00272289 32837
UTC large
Height (km)
Speed (km/s)
/
Latitude / Longitude
Inclination (degrees)
Orbital Period (minutes)
Azimuth
Elevation
Range (km)
Doppler Factor

Next 0 passes for location: London (51.5072 / 0.1276)

No passes found over London.
AMAZONAS 5